Starlink 3256

operational
NORAD ID: 50202 Int'l Des: 2021-125 Owner: SPXS Country: US Constellation: starlink
LEOCIRCULAR

Über Starlink 3256

Beschreibung wird geladen...

Live-Position

3D-Globus wird geladen...

Nächste Überflüge

Höhenverlauf

Altitude vs Time

uPlot chart will show altitude changes over time

Zweizeiliger Elementsatz

1 50202U 21125AY 26071.57037427 .00000434 00000-0 45339-4 0 9990
2 50202 53.2152 226.1889 0001332 83.4039 276.7105 15.08835904237161
Epoch: 12. März 2026 • Age: 26 hours

Aktueller Status

Höhe 557.2 km
Geschwindigkeit 7.58 km/s
Subsatellitenpunkt -48.41°S, 35.32°W
Startdatum 18. Dez. 2021
Alter 4.2 years
Typ internet

Technische Details

Klassifizierung Payload
Masse 290.00 kg
Trockenmasse 270.00 kg
Gesamtmasse 290.00 kg
Länge 0.20 m
Durchmesser 2.80 m
Spannweite 9.00 m
Form Box + pan
Hersteller SPXS
Bus-Typ Starlink
Phasenstatus In Orbit
Besitzer/Staat SPXS/US

Große Konstellationen

Loading constellations...